Location: �couen
(49.0206°N, 2.3831°E)
Time: 22:01:07
(UTC+00:00)

ATLAS 3B R/B - Pass Details

Date: 22 May 2022
Orbit: 976 x 1218 km, 63.8° (Epoch: 20 June)

Event Time Altitude Azimuth Distance (km) Brightness Sun altitude
Rises 00:53:44 0° 311° (NW) 3,997 6.0 -19.1°
Reaches altitude 10° 00:57:14 10° 295° (WNW) 3,072 5.2 -18.9°
Maximum altitude 01:02:07 19° 253° (WSW) 2,476 4.3 -18.6°
Enters shadow 01:03:34 18° 238° (WSW) 2,546 4.2 -18.6°
